TimeAKDT,TemperatureF,Dew PointF,Humidity,Sea Level PressureIn,VisibilityMPH,Wind Direction,Wind SpeedMPH,Gust SpeedMPH,PrecipitationIn,Events,Conditions,WindDirDegrees,DateUTC
12:01 AM,33.1,32.0,96,30.42,9.0,Calm,Calm,-,N/A,,Overcast,0,2012-10-08 08:01:00
12:12 AM,32.0,32.0,100,30.29,8.0,Calm,Calm,-,N/A,,Overcast,0,2012-10-08 08:12:00
12:19 AM,32.0,32.0,100,30.29,5.0,Calm,Calm,-,N/A,,Overcast,0,2012-10-08 08:19:00
12:24 AM,32.0,32.0,100,30.29,2.5,Calm,Calm,-,N/A,,Overcast,0,2012-10-08 08:24:00
12:39 AM,30.2,30.2,100,30.28,4.0,Calm,Calm,-,N/A,,Overcast,0,2012-10-08 08:39:00
12:53 AM,30.2,30.2,100,30.29,2.5,Calm,Calm,-,N/A,,Overcast,0,2012-10-08 08:53:00
1:01 AM,30.2,30.2,100,30.29,1.5,Calm,Calm,-,N/A,,Overcast,0,2012-10-08 09:01:00
1:10 AM,30.2,30.2,100,30.29,0.8,Calm,Calm,-,N/A,,Overcast,0,2012-10-08 09:10:00
1:38 AM,32.0,30.2,93,30.29,0.5,Calm,Calm,-,N/A,Fog,Fog,0,2012-10-08 09:38:00
2:01 AM,32.0,30.9,96,30.42,0.5,WNW,3.5,-,N/A,Fog,Fog,290,2012-10-08 10:01:00
2:10 AM,30.2,30.2,100,30.29,0.8,Calm,Calm,-,N/A,,Overcast,0,2012-10-08 10:10:00
3:01 AM,30.9,30.9,100,30.43,0.8,Calm,Calm,-,N/A,,Overcast,0,2012-10-08 11:01:00
3:36 AM,30.2,30.2,100,30.30,0.5,Calm,Calm,-,N/A,Fog,Light Freezing Fog,0,2012-10-08 11:36:00
3:45 AM,30.2,30.2,100,30.29,0.8,Calm,Calm,-,N/A,,Overcast,0,2012-10-08 11:45:00
3:49 AM,30.2,30.2,100,30.29,1.2,Calm,Calm,-,N/A,,Overcast,0,2012-10-08 11:49:00
3:58 AM,30.2,30.2,100,30.29,3.0,Calm,Calm,-,N/A,,Overcast,0,2012-10-08 11:58:00
4:01 AM,30.9,30.9,100,30.42,4.0,Calm,Calm,-,N/A,,Overcast,0,2012-10-08 12:01:00
4:12 AM,30.2,30.2,100,30.29,10.0,Calm,Calm,-,N/A,,Overcast,0,2012-10-08 12:12:00
4:43 AM,30.2,30.2,100,30.30,2.5,NNW,3.5,-,N/A,,Overcast,330,2012-10-08 12:43:00
4:46 AM,30.2,30.2,100,30.30,1.8,Calm,Calm,-,N/A,,Overcast,0,2012-10-08 12:46:00
4:57 AM,30.2,30.2,100,30.30,2.0,Calm,Calm,-,N/A,,Overcast,0,2012-10-08 12:57:00
5:01 AM,30.9,30.9,100,30.43,2.5,Calm,Calm,-,N/A,,Overcast,0,2012-10-08 13:01:00
5:12 AM,32.0,32.0,100,30.30,2.0,Calm,Calm,-,N/A,,Overcast,0,2012-10-08 13:12:00
5:42 AM,32.0,30.2,93,30.30,1.0,Calm,Calm,-,N/A,,Overcast,0,2012-10-08 13:42:00
5:48 AM,32.0,30.2,93,30.30,0.8,Calm,Calm,-,N/A,,Overcast,0,2012-10-08 13:48:00
5:56 AM,30.2,30.2,100,30.30,0.8,Calm,Calm,-,N/A,,Overcast,0,2012-10-08 13:56:00
6:01 AM,30.2,30.2,100,30.31,1.0,Calm,Calm,-,N/A,,Overcast,0,2012-10-08 14:01:00
6:08 AM,32.0,30.2,93,30.31,2.5,Calm,Calm,-,N/A,,Overcast,0,2012-10-08 14:08:00
6:16 AM,30.2,30.2,100,30.31,1.2,Calm,Calm,-,N/A,,Overcast,0,2012-10-08 14:16:00
6:35 AM,30.2,30.2,100,30.31,2.5,Calm,Calm,-,N/A,,Overcast,0,2012-10-08 14:35:00
6:42 AM,30.2,30.2,100,30.31,8.0,Calm,Calm,-,N/A,,Overcast,0,2012-10-08 14:42:00
7:01 AM,30.9,30.9,100,30.44,10.0,Calm,Calm,-,N/A,,Overcast,0,2012-10-08 15:01:00
7:32 AM,30.2,30.2,100,30.32,6.0,Calm,Calm,-,N/A,,Overcast,0,2012-10-08 15:32:00
7:39 AM,30.2,30.2,100,30.31,2.5,Calm,Calm,-,N/A,,Overcast,0,2012-10-08 15:39:00
7:47 AM,30.2,30.2,100,30.32,1.0,Calm,Calm,-,N/A,,Overcast,0,2012-10-08 15:47:00
8:01 AM,30.2,30.2,100,30.32,0.5,Calm,Calm,-,N/A,Fog,Light Freezing Fog,0,2012-10-08 16:01:00
8:17 AM,30.2,30.2,100,30.32,1.0,Calm,Calm,-,N/A,,Overcast,0,2012-10-08 16:17:00
8:39 AM,32.0,32.0,100,30.32,1.2,Calm,Calm,-,N/A,,Overcast,0,2012-10-08 16:39:00
8:53 AM,32.0,32.0,100,30.33,1.0,Calm,Calm,-,N/A,,Overcast,0,2012-10-08 16:53:00
9:01 AM,30.2,30.2,100,30.33,0.8,Calm,Calm,-,N/A,,Overcast,0,2012-10-08 17:01:00
9:09 AM,30.2,30.2,100,30.33,0.5,Calm,Calm,-,N/A,Fog,Light Freezing Fog,0,2012-10-08 17:09:00
9:51 AM,32.0,32.0,100,30.48,0.5,Calm,Calm,-,N/A,Fog,Fog,0,2012-10-08 17:51:00
10:01 AM,32.0,32.0,100,30.35,0.5,Calm,Calm,-,N/A,Fog,Fog,0,2012-10-08 18:01:00
10:09 AM,32.0,32.0,100,30.36,2.5,Calm,Calm,-,N/A,,Overcast,0,2012-10-08 18:09:00
10:18 AM,32.0,32.0,100,30.36,4.0,Calm,Calm,-,N/A,,Overcast,0,2012-10-08 18:18:00
10:28 AM,32.0,32.0,100,30.36,0.8,Calm,Calm,-,N/A,,Overcast,0,2012-10-08 18:28:00
10:35 AM,32.0,32.0,100,30.37,0.5,Calm,Calm,-,N/A,Fog,Fog,0,2012-10-08 18:35:00
10:45 AM,32.0,32.0,100,30.37,0.2,SSE,3.5,-,N/A,Fog,Fog,150,2012-10-08 18:45:00
11:01 AM,32.0,32.0,100,30.37,0.2,Calm,Calm,-,N/A,Fog,Fog,0,2012-10-08 19:01:00
11:08 AM,32.0,32.0,100,30.37,0.5,Calm,Calm,-,N/A,Fog,Fog,0,2012-10-08 19:08:00
11:21 AM,32.0,32.0,100,30.38,0.8,WSW,3.5,-,N/A,,Overcast,240,2012-10-08 19:21:00
11:35 AM,33.8,33.8,100,30.39,6.0,Calm,Calm,-,N/A,,Overcast,0,2012-10-08 19:35:00
12:01 PM,32.0,32.0,100,30.53,10.0,North,5.8,-,N/A,,Overcast,350,2012-10-08 20:01:00
1:01 PM,33.1,32.0,96,30.54,10.0,NNW,6.9,-,N/A,,Overcast,330,2012-10-08 21:01:00
2:01 PM,35.1,28.0,76,30.56,10.0,NNW,5.8,-,N/A,,Mostly Cloudy,340,2012-10-08 22:01:00
3:01 PM,37.9,25.0,60,30.58,10.0,NW,4.6,-,N/A,,Clear,320,2012-10-08 23:01:00
4:01 PM,37.9,25.0,60,30.59,10.0,ENE,10.4,-,N/A,,Mostly Cloudy,60,2012-10-09 00:01:00
5:01 PM,36.0,25.0,64,30.61,10.0,NNE,10.4,-,N/A,,Mostly Cloudy,30,2012-10-09 01:01:00
6:01 PM,35.1,23.0,61,30.61,10.0,NNE,11.5,21.9,N/A,,Scattered Clouds,30,2012-10-09 02:01:00
7:01 PM,33.1,21.9,64,30.63,10.0,NNE,10.4,16.1,N/A,,Clear,20,2012-10-09 03:01:00
8:01 PM,30.9,21.0,67,30.66,10.0,North,5.8,-,N/A,,Clear,350,2012-10-09 04:01:00
9:01 PM,28.0,21.0,75,30.67,10.0,NNW,6.9,-,N/A,,Clear,340,2012-10-09 05:01:00
10:01 PM,27.0,19.9,75,30.69,10.0,North,4.6,-,N/A,,Clear,360,2012-10-09 06:01:00
11:01 PM,27.0,19.9,75,30.69,10.0,NNW,6.9,-,N/A,,Clear,340,2012-10-09 07:01:00